Regional Weather Roundup
Issued by NWS Charleston, SC

Current Version | Previous Version | Graphics & Text | Print | Product List | Glossary On
Versions: 1 2 3 4 5 6 7 8 9 10 11 12 13 14 15 16 17 18 19 20 21 22 23 24 25 26 27 28 29 30 31 32 33 34 35 36 37 38 39 40 41 42 43 44 45 46 47 48 49 50
796
ASUS42 KCHS 222327
RWRCHS

REGIONAL WEATHER ROUNDUP
NATIONAL WEATHER SERVICE CHARLESTON SC
600 PM EST WED NOV 22 2017

NOTE: "FAIR" INDICATES FEW OR NO CLOUDS BELOW 12,000 FEET WITH NO
SIGNIFICANT WEATHER AND/OR OBSTRUCTIONS TO VISIBILITY.

NOT ALL STATIONS ARE QUALITY CONTROLLED. USE DATA WITH CAUTION...
ESPECIALLY DEWPOINT OBSERVATIONS.

SCZ027-030-031-034>040-042>050-230000-
...SOUTHEAST SOUTH CAROLINA...

CITY           SKY/WX    TMP DP  RH WIND       PRES   REMARKS
N CHARLESTON   MOCLDY    61  56  83 CALM      30.02R
WATERFRONT PRK NOT AVBL
JOHNS ISLAND   FAIR      61  57  88 CALM      30.03R
PINOPOLIS        N/A     61  57  88 CALM      29.92R
MONCKS CORNER  FAIR      55  54  94 CALM      30.03R
SUMMERVILLE    FAIR      57  55  94 CALM      30.04R
BEAUFORT MCAS  CLOUDY    62  60  93 CALM      30.01R
BEAUFORT ARPT  FAIR      61  57  88 CALM      30.02R
HILTON HEAD IS PTCLDY    63  59  88 NW5       30.02R
WALTERBORO     MOCLDY    57  55  94 CALM      30.03R
ALLENDALE      FAIR      59  55  88 CALM      30.02R

...SOUTHERN MIDLANDS AND PEE DEE...

CITY           SKY/WX    TMP DP  RH WIND       PRES   REMARKS
GEORGETOWN     FAIR      55  54  94 CALM      30.03R
KINGSTREE      FAIR      59  48  67 CALM      30.04R
ORANGEBURG     PTCLDY    58  50  75 CALM      30.03R
BARNWELL         N/A     59  54  82 CALM      30.04R
AIKEN          FAIR      55  46  71 NE3       30.08R
MANNING        FAIR      55  54  94 MISG      30.04R FOG
COLUMBIA       CLOUDY    63  50  62 N3        30.03R
SUMTER         PTCLDY    57  44  61 N7        30.01R
FLORENCE       PTCLDY    59  41  51 N9        30.04R
MYRTLE BEACH   PTCLDY    62  50  64 N6        30.03R
N MYRTLE BEACH CLEAR     58  51  78 N3        30.01R

$$

GAZ063-065-086>088-099>101-113>116-118-119-134>141-150-230000-
...SOUTHEAST GEORGIA...

CITY           SKY/WX    TMP DP  RH WIND       PRES   REMARKS
SAVANNAH ARPT  MOCLDY    62  58  86 SW3       30.03R
HUNTER AAF     CLOUDY    60  56  87 CALM      30.00R
FORT STEWART   PTCLDY    61  57  88 CALM      30.01R
STATESBORO     CLOUDY    59  59 100 CALM      30.03R
SYLVANIA       PTCLDY    59  58  97 CALM      30.04R
CLAXTON        FAIR      61  60  97 CALM      30.03R

...CSRA...CENTRAL AND FAR SOUTHEAST GEORGIA...

CITY           SKY/WX    TMP DP  RH WIND       PRES   REMARKS
THOMSON        CLOUDY    57  52  84 CALM      30.09R
AUGUSTA-BUSH   CLOUDY    59  51  75 CALM      30.02R
AUGUSTA-DANIEL PTCLDY    64  49  57 N5        30.04R
SWAINSBORO     FAIR      59  59 100 CALM      30.03R
VIDALIA        CLOUDY    61  59  94 CALM      30.03R
EASTMAN        FAIR      63  51  63 CALM      30.05R
HAZLEHURST     FAIR      62  57  82 CALM      30.01R
ALMA             N/A     62  58  86 NE3       30.00S
WAYCROSS       CLOUDY    64  60  88 NE3       30.02R
JESUP          FAIR      64  57  77 CALM      30.02R
BAXLEY         FAIR      59  59 100 CALM      30.01S
BRUNSWICK      MOCLDY    61  57  88 N5        30.02R
SAINT SIMONS   PTCLDY    63  61  93 E6        30.00S

$$

SCZ027-028-034-036>038-045-046-048>050-GAZ119-141-230000-
...LAKE AND SUPPLEMENTAL COASTAL OBSERVATIONS...

STATION/POSITION TIME  TEMP    WIND        PRES    WAVE   SWELL
                       AIR SEA DIR/SP/G            HT/PER HT/PER/DIR
                 (UTC) (F)     (DEG/KT/KT) (MB)    (FT/S) (FT/S/D)
WINYAH BAY       2230   62     330/  4     1016.0R
LAKE MURRAY      2230   60      CALM  /  2 1015.9R
ACE BASIN NERRS  2245   61        CALM     1016.0R
FORT PULASKI     2300   63 62  310/  6/  6 1016.9
SAPELO ISLAND    2300   62      20/  4     1016.0

$$

ANZ835-935-AMZ111-154-330-350-352-354-370-450-454-472-230000-
...C-MAN AND BUOY OBSERVATIONS...

STATION/POSITION TIME  TEMP    WIND        PRES    WAVE   SWELL
                       AIR SEA DIR/SP/G            HT/PER HT/PER/DIR
                 (UTC) (F)     (DEG/KT/KT) (MB)    (FT/S) (FT/S/D)
BUOY 41004       2310   67 75   20/ 12/ 14 1016.0
BUOY 41008       2250   64 67   40/  4/  4 1016.0S   3/ 7   3/ 90/ 7
FOLLY BEACH CMAN 2300   62     330/  2/  3 1017.2R
CAPERS NEARSHORE 2308   60 63  240/  2/  4 1016.4R
FRIPP NEARSHORE  2308   60 63  190/  4/  6 1015.4F


STATION/POSITION TIME  TEMP    WIND        PRES    WAVE   SWELL
                       AIR SEA DIR/SP/G            HT/PER HT/PER/DIR
                 (UTC) (F)     (DEG/KT/KT) (MB)    (FT/S) (FT/S/D)
5E ST. MARYS GA  2300      67                N/A     3/ 8
FRYING PAN BUOY  2310   67 73   30/  8/ 10 1015.5
BUOY 41025       2310   62 74   10/ 21/ 27 1015.9
CAPE LOOKOUT NC  2300           40/ 15/ 16 1016.5R
BUOY 41002       2250   73 76  360/ 14/ 17 1013.1R   5/ 8   5/120/ 8
BUOY 41010       NOT AVBL
ST AUGUSTINE FL  2300   67 69   20/ 11/ 12 1015.8R


$$




USA.gov is the U.S. government's official web portal to all federal, state and local government web resources and services.